[[[{"header":{"parameterUnit":"kt","parameterCategory":2,"dx":1,"dy":1,"la1":30.253999710083008,"la2":30.299108505249023,"lo1":-89.0895004272461,"lo2":-89.04439544677734,"nx":28,"ny":28,"refTime":"2022-09-27T15:00:00:Z","depth":0,"parameterNumber":1,"parameterNumberName":"U-component_of_WINDS"},"data":[-6.0095,-6.0154,-6.0126,-6.018,-6.0164,-6.0197,-6.02,-6.02,-6.0194,-6.023,-6.0246,-6.0225,-6.0208,-6.0221,-6.0238,-6.0228,-6.0237,-6.0278,-6.026,-6.01,-6.0076,-6.0053,-6.0036,-6.0281,-6.0281,-6.0429,-6.043,-6.0431,-5.998,-5.9965,-5.9986,-5.9987,-6.0004,-5.9947,-5.9944,-5.9962,-5.9993,-5.9986,-6.0,-6.003,-6.0051,-6.0019,-6.0034,-6.0062,-6.0036,-6.0068,-6.0065,-6.0064,-5.9892,-5.9875,-6.0088,-6.0088,-6.0088,-6.0088,-6.0088,-6.0088,-5.9764,-5.9801,-5.9784,-5.9806,-5.9799,-5.98,-5.983,-5.9802,-5.9822,-5.9833,-5.9796,-5.9831,-5.9819,-5.9823,-5.9818,-5.9845,-5.9804,-5.9831,-5.9837,-5.9845,-5.9857,-5.9647,-5.9846,-5.9845,-5.9845,-5.9844,-5.9843,0,-5.9597,-5.9571,-5.9588,-5.9598,-5.9612,-5.9617,-5.9617,-5.9634,-5.9569,-5.9589,-5.9615,-5.9625,-5.9646,-5.9668,-5.9676,-5.9664,-5.9608,-5.9599,-5.9617,-5.9635,-5.9651,-5.9644,-5.9365,-5.9594,-5.9591,-5.959,-5.9588,-5.9588,-5.9377,-5.9423,-5.9392,-5.9408,-5.94,-5.9428,-5.9438,-5.9377,-5.9391,-5.9382,-5.9418,-5.9438,-5.9452,-5.9499,-5.9466,-5.9482,-5.9455,-5.9545,-5.9457,-5.9473,-5.9456,-5.9454,-5.9458,-5.9564,-5.9567,-5.9569,-5.9571,0,-5.9256,-5.9208,-5.927,-5.9235,-5.9227,-5.9279,-5.9248,-5.9283,-5.9251,-5.9294,-5.9301,-5.9252,-5.9279,-5.923,-5.9252,-5.9226,-5.9312,-5.9284,-5.9315,-5.9307,-5.9383,-5.9377,-5.9638,-5.9669,-5.9416,-5.9418,-5.942,0,-5.9049,-5.9112,-5.9038,-5.9076,-5.9144,-5.908,-5.9149,-5.9128,-5.9115,-5.9148,-5.9076,-5.9109,-5.9041,-5.9068,-5.9029,-5.909,-5.9094,-5.9078,-5.9067,-5.9085,-5.9087,-5.9092,-5.908,-5.9041,-5.9039,-5.9038,-5.9037,0,-5.8865,-5.8898,-5.896,-5.896,-5.8929,-5.8959,-5.8948,-5.8933,-5.8944,-5.895,-5.8957,-5.897,-5.8977,-5.8988,-5.8939,-5.8881,-5.9012,-5.8922,-5.8996,-5.8997,-5.9028,-5.9027,-5.927,-5.9036,-5.9035,-5.9035,-5.9034,0,-5.8691,-5.8697,-5.8794,-5.8766,-5.8777,-5.8819,-5.8826,-5.8849,-5.8839,-5.8817,-5.8822,-5.8767,-5.8816,-5.873,-5.8797,-5.8735,-5.8746,-5.8735,-5.8739,-5.8741,-5.8646,-5.879,-5.9027,-5.9049,-5.8743,-5.874,-5.8738,0,-5.8492,-5.8577,-5.8522,-5.8616,-5.8648,-5.8563,-5.8607,-5.86,-5.8574,-5.8598,-5.8569,-5.8597,-5.8523,-5.8525,-5.8564,-5.8536,-5.8616,-5.8523,-5.856,-5.8562,-5.8566,-5.8782,-5.883,-5.898,-5.8706,-5.8709,-5.8712,0,-5.8332,-5.8292,-5.8313,-5.831,-5.8288,-5.8315,-5.8367,-5.838,-5.8399,-5.8398,-5.844,-5.8478,-5.8423,-5.8428,-5.8384,-5.8428,-5.856,-5.8364,-5.8362,-5.8401,-5.8686,-5.873,-5.8756,-5.8522,-5.8525,-5.8528,-5.8687,0,-5.808,-5.8116,-5.8169,-5.8166,-5.8178,-5.8234,-5.818,-5.8201,-5.8157,-5.8128,-5.8188,-5.817,-5.8184,-5.8199,-5.8158,-5.8273,-5.8246,-5.8187,-5.81,-5.8243,-5.8294,-5.8315,-5.8029,-5.8026,-5.8023,-5.8021,0,0,-5.7902,-5.7952,-5.789,-5.7937,-5.7943,-5.7853,-5.7918,-5.7914,-5.7909,-5.7916,-5.7867,-5.7919,-5.7906,-5.7985,-5.8025,-5.8031,-5.8047,-5.7999,-5.8175,-5.8193,-5.8209,-5.8264,-5.8286,-5.8017,-5.8016,-5.8015,-5.8015,0,-5.7799,-5.7786,-5.785,-5.7843,-5.783,-5.7795,-5.7811,-5.7782,-5.7766,-5.7825,-5.775,-5.778,-5.7824,-5.7819,-5.7823,-5.7988,-5.7931,-5.7997,-5.8103,-5.8153,-5.8173,-5.8191,-5.825,-5.8272,-5.8009,-5.8009,-5.8009,0,-5.7632,-5.761,-5.7635,-5.7645,-5.7636,-5.7672,-5.7566,-5.7609,-5.7634,-5.7534,-5.7594,-5.7576,-5.7566,-5.7648,-5.7683,-5.7639,-5.7828,-5.7759,-5.7773,-5.7775,-5.7821,-5.7846,-5.7868,-5.7576,-5.7575,-5.7574,0,0,-5.755,-5.7582,-5.754,-5.7619,-5.7618,-5.7568,-5.7581,-5.7538,-5.7531,-5.7528,-5.7504,-5.7499,-5.7523,-5.7541,-5.7561,-5.7658,-5.7651,-5.7708,-5.7728,-5.7745,-5.7757,-5.7807,-5.7832,-5.7569,-5.7569,-5.7569,0,0,-5.751,-5.7464,-5.742,-5.7505,-5.75,-5.7464,-5.7515,-5.7461,-5.7473,-5.7461,-5.7392,-5.7388,-5.7463,-5.7449,-5.739,-5.7529,-5.7444,-5.7457,-5.7535,-5.756,-5.758,-5.7582,-5.728,0,0,0,0,0,-5.7376,-5.7469,-5.743,-5.7437,-5.7449,-5.7485,-5.7487,-5.7431,-5.7372,-5.7413,-5.7384,-5.7322,-5.7403,-5.7349,-5.7356,-5.7423,-5.7506,-5.7517,-5.7528,-5.7652,-5.7679,-5.7701,0,0,0,0,0,0,-5.7378,-5.7386,-5.7428,-5.7396,-5.7399,-5.7481,-5.7368,-5.7356,-5.7366,-5.7353,-5.7329,-5.7321,-5.7275,-5.7341,-5.7349,-5.7413,-5.7277,-5.7511,-5.752,-5.7529,-5.7661,-5.7683,-5.7702,0,0,0,0,0,-5.7379,-5.7385,-5.7421,-5.7394,-5.7397,-5.7345,-5.7364,-5.7353,-5.736,-5.7315,-5.7305,-5.7317,-5.7278,-5.7281,-5.7345,-5.7411,-5.7271,-5.7274,-5.7517,-5.7524,-5.7531,-5.7672,0,0,0,0,0,0,-5.738,-5.7376,-5.742,-5.7418,-5.7355,-5.7339,-5.7334,-5.7351,-5.732,-5.7311,-5.7299,-5.729,-5.7282,-5.7283,-5.7285,-5.7414,-5.7267,-5.727,-5.7272,-5.7522,-5.7528,-5.7533,0,0,0,0,0,0,-5.7372,-5.7375,-5.7419,-5.7372,-5.7365,-5.7334,-5.733,-5.7377,-5.7321,-5.7306,-5.7297,-5.7296,-5.7278,-5.7285,-5.7287,-5.7362,-5.7263,-5.7266,-5.7268,-5.727,-5.7527,-5.7532,0,0,0,0,0,0,-5.7372,-5.7375,-5.7372,-5.7367,-5.736,-5.734,-5.7374,-5.7391,-5.7281,-5.7309,-5.7269,-5.7264,-5.7282,-5.7282,-5.7288,-5.7363,-5.7362,-5.7263,-5.7265,-5.7267,-5.7268,0,0,0,0,0,0,0,-5.7372,-5.7367,-5.7428,-5.7362,-5.7356,-5.7405,-5.7405,-5.7404,-5.728,-5.7275,-5.727,-5.7266,-5.7246,-5.7249,-5.7253,-5.7364,0,0,-5.7263,-5.7264,0,0,0,0,0,0,0,0,-5.7365,-5.7367,-5.7428,-5.7428,-5.7428,-5.7405,-5.7405,-5.7405,-5.7279,-5.7275,-5.7271,-5.7268,-5.7247,-5.725,-5.7252,0,0,0,0,0,0,0,0,0,0,0,0,0,0,0,-5.7428,-5.7428,0,-5.7405,-5.7405,-5.7405,-5.7278,-5.7275,-5.7272,-5.7269,-5.7248,-5.725,-5.7252,0,0,0,0,0,0,0,0,0,0,0,0,0,0,0,0,0,0,0,0,0,0,0,0,0,0,0,0,0,0,0,0,0,0,0,0,0,0,0,0,0,0,0,0,0,0,0,0,0,0,0,0,0,0,0,0,0,0,0,0,0,0,0,0,0,0,0,0,0]}],[{"header":{"parameterUnit":"kt","parameterCategory":2,"dx":1,"dy":1,"la1":30.253999710083008,"la2":30.299108505249023,"lo1":-89.0895004272461,"lo2":-89.04439544677734,"nx":28,"ny":28,"refTime":"2022-09-27T15:00:00:Z","depth":0,"parameterNumber":2,"parameterNumberName":"V-component_of_WINDS"},"data":[-14.2144,-14.228,-14.2284,-14.2439,-14.2467,-14.2573,-14.261,-14.2659,-14.2696,-14.2819,-14.2888,-14.2901,-14.2935,-14.3015,-14.3087,-14.309,-14.312,-14.3168,-14.3163,-14.2951,-14.2921,-14.2893,-14.2862,-14.3175,-14.3176,-14.3382,-14.3384,-14.3386,-14.199,-14.2021,-14.2105,-14.2187,-14.2257,-14.2213,-14.2272,-14.2333,-14.2427,-14.2474,-14.2542,-14.2648,-14.273,-14.2747,-14.2824,-14.2884,-14.2865,-14.2905,-14.2899,-14.2905,-14.2679,-14.2646,-14.2919,-14.2919,-14.2919,-14.2919,-14.2919,-14.2919,-14.1711,-14.1793,-14.1845,-14.1935,-14.1976,-14.2029,-14.2106,-14.2121,-14.2199,-14.2283,-14.2266,-14.237,-14.2414,-14.2505,-14.2534,-14.2613,-14.2567,-14.2609,-14.2619,-14.263,-14.2643,-14.2345,-14.2625,-14.2624,-14.2624,-14.2623,-14.2622,0,-14.1507,-14.1505,-14.1584,-14.1665,-14.173,-14.1791,-14.1846,-14.1893,-14.1879,-14.1944,-14.2036,-14.2089,-14.2191,-14.2275,-14.2345,-14.2366,-14.2321,-14.2316,-14.2345,-14.2355,-14.2356,-14.2357,-14.1987,-14.2307,-14.2305,-14.2303,-14.2301,-14.23,-14.1226,-14.1321,-14.1374,-14.1429,-14.146,-14.1548,-14.16,-14.1582,-14.1637,-14.17,-14.177,-14.1855,-14.1922,-14.2065,-14.2074,-14.2149,-14.2127,-14.225,-14.2137,-14.2144,-14.2128,-14.2123,-14.2131,-14.2271,-14.2275,-14.2278,-14.228,0,-14.1067,-14.1069,-14.1215,-14.1256,-14.1269,-14.1368,-14.1401,-14.1479,-14.1483,-14.159,-14.1614,-14.1618,-14.1706,-14.1696,-14.1793,-14.1784,-14.1942,-14.1919,-14.1928,-14.1922,-14.203,-14.202,-14.2385,-14.2431,-14.2106,-14.211,-14.2112,0,-14.0826,-14.095,-14.0945,-14.103,-14.1166,-14.1144,-14.1279,-14.1295,-14.1333,-14.1417,-14.1366,-14.1445,-14.1419,-14.1496,-14.1483,-14.161,-14.1628,-14.1628,-14.1623,-14.1633,-14.1633,-14.1659,-14.1643,-14.1608,-14.1607,-14.1605,-14.1603,0,-14.0577,-14.0718,-14.0856,-14.0888,-14.0942,-14.1006,-14.1031,-14.1072,-14.1122,-14.1184,-14.1216,-14.1289,-14.1329,-14.1385,-14.1368,-14.1292,-14.1523,-14.1414,-14.1522,-14.1523,-14.1572,-14.1569,-14.1897,-14.1601,-14.1601,-14.16,-14.1599,0,-14.0381,-14.045,-14.0649,-14.0693,-14.073,-14.0819,-14.0892,-14.0966,-14.1013,-14.1011,-14.1059,-14.1023,-14.1133,-14.1027,-14.1178,-14.1084,-14.1125,-14.1136,-14.1143,-14.1151,-14.1032,-14.1217,-14.1531,-14.1563,-14.116,-14.1157,-14.1153,0,-14.0096,-14.0297,-14.028,-14.0468,-14.0559,-14.0497,-14.0595,-14.0638,-14.0645,-14.072,-14.0724,-14.0809,-14.0728,-14.0753,-14.0829,-14.0836,-14.0958,-14.0819,-14.0924,-14.0928,-14.0914,-14.1203,-14.1252,-14.1464,-14.1106,-14.1111,-14.1115,0,-13.9874,-13.994,-13.9975,-14.001,-14.0066,-14.014,-14.0253,-14.0334,-14.0385,-14.0438,-14.053,-14.0648,-14.0592,-14.0633,-14.0609,-14.0689,-14.0875,-14.0616,-14.0617,-14.0663,-14.1081,-14.1128,-14.1164,-14.0841,-14.0847,-14.0851,-14.1077,0,-13.9579,-13.9678,-13.9773,-13.9851,-13.9907,-14.0024,-14.0015,-14.0075,-14.0048,-14.0051,-14.0186,-14.0215,-14.0293,-14.033,-14.0304,-14.049,-14.0457,-14.0394,-14.0289,-14.0478,-14.0553,-14.0583,-14.018,-14.0176,-14.0174,-14.0171,0,0,-13.9304,-13.9447,-13.9423,-13.9533,-13.9579,-13.9511,-13.9636,-13.9672,-13.9745,-13.9777,-13.9719,-13.989,-13.9915,-14.0079,-14.0137,-14.0169,-14.02,-14.0134,-14.0388,-14.0413,-14.0435,-14.0515,-14.0546,-14.0167,-14.0166,-14.0165,-14.0164,0,-13.9195,-13.9229,-13.9355,-13.9392,-13.9446,-13.9444,-13.9474,-13.9514,-13.9521,-13.9653,-13.9592,-13.967,-13.9807,-13.9842,-13.9878,-14.0115,-14.0062,-14.0139,-14.0271,-14.0362,-14.039,-14.0414,-14.0498,-14.0529,-14.0157,-14.0158,-14.0158,0,-13.8974,-13.9006,-13.9066,-13.9168,-13.9201,-13.9295,-13.9184,-13.9287,-13.9355,-13.927,-13.9402,-13.9416,-13.9462,-13.9618,-13.9687,-13.9635,-13.9937,-13.9839,-13.9856,-13.9862,-13.9949,-13.9983,-14.0013,-13.9619,-13.9617,-13.9616,0,0,-13.888,-13.8972,-13.8998,-13.9143,-13.9169,-13.9167,-13.9215,-13.9193,-13.9238,-13.9256,-13.9273,-13.9317,-13.9395,-13.9447,-13.952,-13.9693,-13.9699,-13.9773,-13.9799,-13.982,-13.9838,-13.993,-13.9963,-13.9609,-13.9609,-13.9608,0,0,-13.8833,-13.8871,-13.8837,-13.9005,-13.9052,-13.9084,-13.9171,-13.9129,-13.9194,-13.9179,-13.9143,-13.9153,-13.9298,-13.9314,-13.9224,-13.9481,-13.9377,-13.9398,-13.9466,-13.9498,-13.9523,-13.9515,-13.911,0,0,0,0,0,-13.8716,-13.8866,-13.8835,-13.8862,-13.8989,-13.9102,-13.9117,-13.9093,-13.9021,-13.9091,-13.9098,-13.9039,-13.9258,-13.9178,-13.9203,-13.9303,-13.9521,-13.9536,-13.9551,-13.9679,-13.9713,-13.9741,0,0,0,0,0,0,-13.8727,-13.876,-13.8831,-13.887,-13.8898,-13.9096,-13.8968,-13.8965,-13.9013,-13.9,-13.904,-13.904,-13.9019,-13.9163,-13.9186,-13.9281,-13.9102,-13.9527,-13.954,-13.9552,-13.9691,-13.9718,-13.9742,0,0,0,0,0,-13.8735,-13.8761,-13.8971,-13.8868,-13.8892,-13.8897,-13.8962,-13.8959,-13.8995,-13.9006,-13.9004,-13.8973,-13.9023,-13.904,-13.9177,-13.9272,-13.9086,-13.9095,-13.9536,-13.9546,-13.9555,-13.9704,0,0,0,0,0,0,-13.8741,-13.8758,-13.8975,-13.8982,-13.881,-13.8885,-13.8896,-13.8954,-13.8996,-13.8997,-13.8936,-13.8925,-13.9027,-13.904,-13.9054,-13.927,-13.9073,-13.9082,-13.9087,-13.9544,-13.9552,-13.9559,0,0,0,0,0,0,-13.8743,-13.8764,-13.8978,-13.8906,-13.8904,-13.8874,-13.8885,-13.8996,-13.8998,-13.8924,-13.8916,-13.8931,-13.9005,-13.904,-13.9051,-13.9225,-13.9063,-13.9071,-13.9077,-13.9081,-13.955,-13.9557,0,0,0,0,0,0,-13.8751,-13.8769,-13.8904,-13.8903,-13.8901,-13.897,-13.8971,-13.9101,-13.894,-13.8923,-13.8925,-13.8917,-13.9007,-13.9017,-13.9049,-13.922,-13.9224,-13.9063,-13.9069,-13.9073,-13.9076,0,0,0,0,0,0,0,-13.8758,-13.8647,-13.8938,-13.89,-13.8898,-13.9041,-13.9042,-13.9044,-13.8938,-13.8932,-13.8926,-13.892,-13.9015,-13.9024,-13.9033,-13.9215,0,0,-13.9062,-13.9066,0,0,0,0,0,0,0,0,-13.8639,-13.8645,-13.8938,-13.8939,-13.8941,-13.9041,-13.9042,-13.9044,-13.8937,-13.8932,-13.8927,-13.8923,-13.9017,-13.9025,-13.9032,0,0,0,0,0,0,0,0,0,0,0,0,0,0,0,-13.8938,-13.8939,0,-13.9041,-13.9042,-13.9043,-13.8937,-13.8933,-13.8928,-13.8925,-13.9019,-13.9025,-13.9032,0,0,0,0,0,0,0,0,0,0,0,0,0,0,0,0,0,0,0,0,0,0,0,0,0,0,0,0,0,0,0,0,0,0,0,0,0,0,0,0,0,0,0,0,0,0,0,0,0,0,0,0,0,0,0,0,0,0,0,0,0,0,0,0,0,0,0,0,0]}]]]